Location: Melbourne
(37.8170°S, 144.9670°E)
Time: 21:26:02
(UTC+10:00)

Vanguard 1 Rocket - Visible Passes

Search period start: 23 August 2014 00:00
Search period end: 02 September 2014 00:00
Orbit: 651 x 4230 km, 34.3° (Epoch: 19 August)

Date Brightness Start Highest point End Pass type
(mag) Time Alt. Az. Time Alt. Az. Time Alt. Az.
23 Aug 9.0 04:17:26 26° N 04:18:16 27° NNE 04:22:52 10° ENE visible
24 Aug 9.9 03:10:47 15° ENE 03:10:47 15° ENE 03:12:16 10° ENE visible
24 Aug 8.0 05:28:08 17° NW 05:32:56 45° NNE 05:37:27 10° E visible
25 Aug 8.6 04:21:27 35° N 04:22:24 36° NNE 04:27:25 10° E visible
26 Aug 9.6 03:14:43 21° ENE 03:14:43 21° ENE 03:17:10 10° ENE visible
26 Aug 7.7 05:32:03 18° WNW 05:37:03 54° N 05:41:42 10° E visible
27 Aug 8.3 04:25:17 42° NNW 04:26:31 46° NNE 04:31:47 10° E visible
28 Aug 9.3 03:18:30 29° ENE 03:18:30 29° ENE 03:21:45 10° E visible
28 Aug 7.6 05:35:49 18° WNW 05:41:11 61° N 05:45:55 10° E visible
29 Aug 8.1 04:29:00 47° NNW 04:30:37 56° N 04:36:03 10° E visible
30 Aug 9.0 03:22:09 37° ENE 03:22:09 37° ENE 03:26:08 10° E visible
30 Aug 7.6 05:39:27 17° WNW 05:45:18 64° N 05:50:06 10° E visible
31 Aug 10.3 02:15:16 13° E 02:15:16 13° E 02:15:59 10° E visible
31 Aug 8.0 04:32:35 47° NW 04:34:43 63° N 04:40:17 10° E visible
01 Sep 8.7 03:25:41 48° NE 03:25:41 48° NE 03:30:26 10° E visible
01 Sep 7.6 05:43:00 15° W 05:49:24 64° N 05:54:16 10° ENE visible
